カタログに戻る

DELTA 1 DEB

運用中SSO
NORAD 10826·DEBRIS·🇺🇸 United States

打ち上げ Jul 29, 1976 から Vandenberg Space Force Base

Loading…

次のパス (今後24時間)

TLE

最新Source: Space-Track

元期: Sep 14, 2026, 06:41 UTC

1 10826U 76077BW  26257.27887522  .00001923  00000-0  10833-1 0  9998
2 10826 101.9398 175.7281 0141889 298.5421 214.5363 12.60603139260220

AllMySatでDELTA 1 DEBをリアルタイム追跡

Download on the App Store